DWI209 MDSD-KEWR

Flight info

Callsign DWI209
Flight time N/A
Altitude 31000
Route LERED2J LERED DCT LUCTI/M080F320 L454 GRAMN/M080F340 L454 OKONU/N0465F350 DCT YAALE Y497 MOUGH/N0470F340 Y497 SUBBS DCT CYN DCT GXU DCT RBV V249 METRO
Aircraft B738/M-SDE2E3FGHIRWXY/LB1

Departure

Time 2026-05-06 21:21
Airport Las Américas International Airport (MDSD)

Arrival

Time N/A
Airport Newark Liberty International Airport (KEWR)
Time Latitude Longitude Altitude Speed Heading
2026-05-06 20:42 18.43248 -69.67651 60 ft 0 kts 217°
2026-05-06 21:11 18.43256 -69.67644 57 ft 3 kts 217°
2026-05-06 21:11 18.43272 -69.67631 64 ft 3 kts 219°
2026-05-06 21:11 18.43288 -69.67618 63 ft 3 kts 220°
2026-05-06 21:12 18.43303 -69.67604 60 ft 3 kts 222°
2026-05-06 21:12 18.43318 -69.67589 59 ft 3 kts 225°
2026-05-06 21:12 18.43332 -69.67573 57 ft 3 kts 232°
2026-05-06 21:12 18.43338 -69.67565 59 ft 0 kts 236°
2026-05-06 21:15 18.43337 -69.67565 59 ft 2 kts 236°
2026-05-06 21:15 18.43351 -69.67594 63 ft 6 kts 347°
2026-05-06 21:15 18.43380 -69.67561 60 ft 8 kts 63°
2026-05-06 21:16 18.43408 -69.67497 60 ft 12 kts 69°
2026-05-06 21:16 18.43460 -69.67409 57 ft 15 kts 47°
2026-05-06 21:16 18.43530 -69.67332 65 ft 14 kts 40°
2026-05-06 21:16 18.43621 -69.67329 63 ft 14 kts 342°
2026-05-06 21:17 18.43716 -69.67364 68 ft 15 kts 341°
2026-05-06 21:17 18.43823 -69.67402 68 ft 17 kts 341°
2026-05-06 21:17 18.43938 -69.67443 62 ft 18 kts 341°
2026-05-06 21:17 18.44062 -69.67486 68 ft 20 kts 342°
2026-05-06 21:18 18.44183 -69.67539 68 ft 14 kts 336°
2026-05-06 21:18 18.44272 -69.67535 62 ft 9 kts 26°
2026-05-06 21:18 18.44277 -69.67532 68 ft 0 kts 28°
2026-05-06 21:19 18.44278 -69.67531 68 ft 1 kts 28°
2026-05-06 21:20 18.44313 -69.67512 65 ft 10 kts 28°
2026-05-06 21:20 18.44362 -69.67458 61 ft 11 kts 69°
2026-05-06 21:20 18.44336 -69.67395 68 ft 10 kts 154°
2026-05-06 21:20 18.44238 -69.67354 68 ft 39 kts 159°
2026-05-06 21:21 18.43695 -69.67157 65 ft 123 kts 162°
2026-05-06 21:21 18.42659 -69.66822 172 ft 183 kts 162°
2026-05-06 21:21 18.41377 -69.66379 970 ft 192 kts 154°
2026-05-06 21:21 18.40439 -69.65431 2093 ft 194 kts 120°
2026-05-06 21:22 18.39603 -69.64247 2605 ft 215 kts 139°
2026-05-06 21:22 18.38584 -69.63034 2873 ft 233 kts 122°
2026-05-06 21:22 18.38154 -69.61378 3344 ft 243 kts 88°
2026-05-06 21:22 18.38595 -69.59658 3924 ft 246 kts 73°
2026-05-06 21:23 18.39176 -69.57965 4482 ft 247 kts 72°
2026-05-06 21:23 18.40042 -69.56398 5005 ft 254 kts 45°
2026-05-06 21:23 18.41610 -69.55539 5520 ft 261 kts 12°
2026-05-06 21:23 18.43427 -69.55671 6056 ft 265 kts 346°
2026-05-06 21:24 18.45211 -69.56208 6533 ft 269 kts 344°
2026-05-06 21:24 18.47009 -69.56790 7004 ft 270 kts 343°
2026-05-06 21:24 18.48817 -69.57377 7511 ft 274 kts 343°
2026-05-06 21:24 18.50636 -69.57963 8145 ft 276 kts 343°
2026-05-06 21:25 18.52513 -69.58561 8456 ft 295 kts 343°
2026-05-06 21:25 18.54502 -69.59189 9172 ft 299 kts 343°
2026-05-06 21:25 18.56479 -69.59811 10116 ft 294 kts 342°
2026-05-06 21:25 18.58476 -69.60437 10657 ft 307 kts 343°
2026-05-06 21:26 18.60602 -69.61102 10819 ft 330 kts 343°
2026-05-06 21:26 18.62877 -69.61813 10979 ft 352 kts 343°
2026-05-06 21:26 18.65295 -69.62569 11123 ft 371 kts 342°
2026-05-06 21:26 18.67829 -69.63358 11268 ft 388 kts 343°
2026-05-06 21:27 18.70461 -69.64165 11640 ft 397 kts 343°
2026-05-06 21:27 18.73124 -69.64975 12166 ft 400 kts 343°
2026-05-06 21:27 18.75811 -69.65792 12737 ft 402 kts 343°
2026-05-06 21:27 18.78503 -69.66612 13261 ft 405 kts 343°
2026-05-06 21:28 18.81183 -69.67431 13769 ft 408 kts 343°
2026-05-06 21:28 18.83913 -69.68266 14237 ft 410 kts 343°
2026-05-06 21:28 18.86658 -69.69106 14738 ft 411 kts 343°
2026-05-06 21:28 18.89396 -69.69999 15268 ft 411 kts 339°